Location: Oberwangen
(47.4286°N, 8.9679°E)
Time: 08:17:32
(UTC+00:00)

Cosmos 1184 Rocket - Pass Details

Date: 20 June 2021
Orbit: 399 x 413 km, 81.2° (Epoch: 04 August)

Event Time Altitude Azimuth Distance (km) Brightness Sun altitude
Exits shadow 22:28:43 50° 215° (SW) 539 3.0 -18.0°
Maximum altitude 22:29:25 72° 282° (WNW) 443 2.8 -18.0°
Drops below altitude 10° 22:32:40 10° 7° (N) 1,502 6.6 -18.1°
Sets 22:34:43 0° 10° (N) 2,368 7.8 -18.2°
